EW6606 Weather Reports


time (UTC)temp
C
wind
direction
speed
KPH
gust
KPH
rain 1hr
cm
rain 24hr
cm
rain mn
cm
humidity
%
barometer
mb
20260906095420 24 236 1.6 3.2 0.00 0.00 0.00 91 1013.3
20260906094914 24 247 1.6 4.8 0.00 0.00 0.00 91 1013.4
20260906094409 24 0 0.0 3.2 0.00 0.00 0.00 91 1013.3
20260906093905 24 274 0.0 4.8 0.00 0.00 0.00 91 1013.3
20260906093401 24 28 1.6 3.2 0.00 0.00 0.00 91 1013.5
20260906092900 24 304 0.0 3.2 0.00 0.00 0.00 91 1013.3
20260906092355 24 264 3.2 4.8 0.00 0.00 0.00 91 1013.3
20260906091850 24 13 3.2 3.2 0.00 0.00 0.00 91 1013.2
20260906091347 24 129 0.0 1.6 0.00 0.00 0.00 91 1013.3
20260906090843 24 230 0.0 0.0 0.00 0.00 0.00 91 1013.2
20260906090342 24 22 0.0 1.6 0.00 0.00 0.00 91 1013.3
20260906085836 24 241 0.0 1.6 0.00 0.00 0.00 91 1013.2
20260906085336 24 154 0.0 1.6 0.00 0.00 0.00 91 1013.3
20260906084831 24 164 0.0 3.2 0.00 0.00 0.00 91 1013.3
20260906084331 24 134 3.2 4.8 0.00 0.00 0.00 91 1013.4
20260906083825 24 137 0.0 3.2 0.00 0.00 0.00 91 1013.3
20260906083321 24 129 0.0 1.6 0.00 0.00 0.00 91 1013.4
20260906082821 24 230 0.0 1.6 0.00 0.00 0.00 90 1013.3
20260906082316 24 13 0.0 1.6 0.00 0.00 0.00 90 1013.3
20260906081812 24 56 1.6 3.2 0.00 0.00 0.00 90 1013.2
20260906081307 24 62 0.0 3.2 0.00 0.00 0.00 90 1013.1
20260906080803 24 37 0.0 3.2 0.00 0.00 0.00 90 1013.0
20260906080300 24 53 1.6 3.2 0.00 0.00 0.00 90 1013.0
20260906075758 24 25 0.0 3.2 0.00 0.00 0.00 89 1013.1
20260906075253 25 37 0.0 3.2 0.00 0.00 0.00 89 1013.2
20260906074749 25 357 3.2 3.2 0.00 0.00 0.00 89 1013.2
20260906074248 25 6 3.2 3.2 0.00 0.00 0.00 89 1013.2
20260906073747 25 297 0.0 1.6 0.00 0.00 0.00 89 1013.2
20260906073242 25 7 0.0 0.0 0.00 0.00 0.00 89 1013.3
20260906072738 25 293 0.0 0.0 0.00 0.00 0.00 89 1013.2
20260906072234 25 230 0.0 0.0 0.00 0.00 0.00 89 1013.6
20260906071730 25 166 0.0 1.6 0.00 0.00 0.00 89 1013.4
20260906071229 25 142 0.0 1.6 0.00 0.00 0.00 89 1013.4
20260906070726 25 7 0.0 0.0 0.00 0.00 0.00 89 1013.4
20260906070222 25 7 0.0 0.0 0.00 0.00 0.00 89 1013.4
20260906065721 25 166 0.0 0.0 0.00 0.00 0.00 89 1013.3
20260906065216 25 166 0.0 0.0 0.00 0.00 0.00 89 1013.5
20260906064712 25 297 0.0 1.6 0.00 0.00 0.00 89 1013.5
20260906064207 25 315 0.0 3.2 0.00 0.00 0.00 89 1013.5
20260906063702 25 130 0.0 0.0 0.00 0.00 0.00 89 1013.7
20260906063158 25 130 0.0 0.0 0.00 0.00 0.00 89 1013.6
20260906062654 25 130 0.0 1.6 0.00 0.00 0.00 89 1013.7
20260906062152 25 66 0.0 1.6 0.00 0.00 0.00 89 1013.7
20260906061648 25 333 0.0 1.6 0.00 0.00 0.00 89 1013.5
20260906061143 25 343 0.0 1.6 0.00 0.00 0.00 89 1013.6
20260906060639 25 121 1.6 4.8 0.00 0.00 0.00 89 1013.6
20260906060137 25 163 1.6 3.2 0.00 0.00 0.00 89 1013.7
20260906055632 25 141 1.6 3.2 0.00 0.00 0.00 88 1013.7
20260906055127 25 37 0.0 3.2 0.00 0.00 0.00 88 1013.7
20260906054622 25 67 1.6 1.6 0.00 0.00 0.00 87 1013.6
20260906054117 25 124 3.2 3.2 0.00 0.00 0.00 87 1013.6
20260906053614 25 129 0.0 1.6 0.00 0.00 0.00 86 1013.4
20260906053108 25 142 0.0 0.0 0.00 0.00 0.00 86 1013.2
20260906052604 25 142 0.0 1.6 0.00 0.00 0.00 86 1013.3
20260906052100 25 142 0.0 1.6 0.00 0.00 0.00 86 1013.5
20260906051556 25 76 0.0 0.0 0.00 0.00 0.00 86 1013.5
20260906051052 25 89 0.0 3.2 0.00 0.00 0.00 85 1013.5
20260906050546 25 89 0.0 3.2 0.00 0.00 0.00 85 1013.4
20260906050042 25 47 0.0 1.6 0.00 0.00 0.00 85 1013.7
20260906045540 25 129 0.0 0.0 0.00 0.08 0.08 85 1013.6
20260906045036 25 129 0.0 1.6 0.00 0.08 0.08 85 1013.5
20260906044531 25 119 0.0 1.6 0.00 0.08 0.08 85 1013.6
20260906044027 25 114 1.6 3.2 0.00 0.08 0.08 85 1013.6
20260906043522 26 0 0.0 3.2 0.00 0.08 0.08 85 1013.5
20260906043018 26 31 1.6 3.2 0.00 0.08 0.08 85 1013.7
20260906042516 26 9 0.0 3.2 0.00 0.08 0.08 85 1013.6
20260906042011 26 357 1.6 3.2 0.00 0.08 0.08 85 1013.7
20260906041508 26 117 0.0 1.6 0.00 0.08 0.08 85 1013.7
20260906041008 26 66 0.0 1.6 0.00 0.08 0.08 84 1013.9
20260906040503 26 76 0.0 3.2 0.00 0.08 0.08 84 1013.9
20260906035957 26 124 0.0 3.2 0.00 0.08 0.08 84 1013.8
20260906035453 26 44 1.6 3.2 0.00 0.08 0.08 84 1013.7
20260906034948 26 89 0.0 1.6 0.00 0.08 0.08 84 1013.5
20260906034443 26 122 1.6 3.2 0.00 0.08 0.08 84 1013.8
20260906033939 26 104 0.0 0.0 0.00 0.08 0.08 84 1013.7
20260906033438 26 89 0.0 1.6 0.00 0.08 0.08 84 1013.8
20260906032934 26 7 0.0 3.2 0.00 0.08 0.08 84 1013.7
20260906032431 26 50 0.0 3.2 0.00 0.08 0.08 84 1013.8
20260906031925 26 139 1.6 3.2 0.00 0.08 0.08 84 1013.9
20260906031420 26 195 0.0 0.0 0.00 0.08 0.08 83 1013.8
20260906030915 26 20 1.6 3.2 0.00 0.08 0.08 83 1013.8
20260906030410 26 117 0.0 1.6 0.00 0.08 0.08 83 1013.7
20260906025904 26 155 0.0 3.2 0.00 0.08 0.08 83 1013.7
20260906025359 26 155 1.6 3.2 0.00 0.08 0.08 83 1013.7
20260906024858 26 129 0.0 3.2 0.00 0.08 0.08 84 1013.8
20260906024357 26 130 1.6 3.2 0.00 0.08 0.08 83 1013.7
20260906023852 26 142 1.6 3.2 0.00 0.08 0.08 83 1013.7
20260906023348 26 130 0.0 0.0 0.00 0.08 0.08 82 1013.6
20260906022843 27 129 1.6 3.2 0.00 0.08 0.08 82 1013.6
20260906022338 27 211 0.0 1.6 0.00 0.08 0.08 81 1013.6
20260906021834 27 297 0.0 0.0 0.00 0.08 0.08 81 1013.6
20260906021333 27 297 0.0 1.6 0.00 0.08 0.08 81 1013.6
20260906020828 27 113 0.0 3.2 0.00 0.08 0.08 81 1013.4
20260906020327 27 123 3.2 3.2 0.00 0.08 0.08 81 1013.3
20260906015822 27 15 0.0 1.6 0.00 0.08 0.08 81 1013.3
20260906015321 27 172 1.6 3.2 0.00 0.08 0.08 81 1013.2
20260906014820 27 122 1.6 3.2 0.00 0.08 0.08 80 1012.9
20260906014316 27 89 0.0 1.6 0.00 0.08 0.08 80 1012.9
20260906013812 27 155 3.2 4.8 0.00 0.08 0.08 80 1013.0
20260906013307 27 129 0.0 1.6 0.00 0.08 0.08 79 1012.8
20260906012803 27 117 0.0 1.6 0.00 0.08 0.08 78 1012.6
20260906012257 28 142 0.0 1.6 0.00 0.08 0.08 77 1012.4
20260906011752 28 117 0.0 0.0 0.00 0.08 0.08 77 1012.5
20260906011252 28 62 0.0 0.0 0.00 0.08 0.08 77 1012.2
20260906010748 28 64 1.6 3.2 0.00 0.08 0.08 76 1012.2
20260906010244 28 50 0.0 3.2 0.00 0.08 0.08 76 1012.2
20260906005738 28 154 0.0 1.6 0.00 0.08 0.08 76 1012.1
20260906005232 28 187 0.0 1.6 0.00 0.08 0.08 75 1012.2
20260906004732 28 297 0.0 0.0 0.00 0.08 0.08 75 1012.3
20260906004227 28 2 1.6 3.2 0.00 0.08 0.08 75 1012.5
20260906003721 28 79 1.6 1.6 0.00 0.08 0.08 74 1012.3
20260906003212 29 269 0.0 1.6 0.00 0.08 0.08 74 1012.2
20260906002712 29 89 0.0 1.6 0.00 0.08 0.08 73 1012.2
20260906002207 29 65 0.0 1.6 0.00 0.08 0.08 73 1012.3
20260906001702 29 52 0.0 1.6 0.00 0.08 0.08 73 1012.4
20260906001201 29 37 0.0 0.0 0.00 0.08 0.08 73 1012.6
20260906000657 29 37 0.0 3.2 0.00 0.08 0.08 73 1012.5
20260906000152 29 11 3.2 3.2 0.00 0.08 0.08 73 1012.3
20260905235651 30 327 4.8 4.8 0.00 0.08 0.08 73 1012.5
20260905235146 30 149 3.2 3.2 0.00 0.08 0.08 73 1012.3
20260905234641 30 142 0.0 3.2 0.00 0.08 0.08 72 1012.4
20260905234137 30 162 0.0 3.2 0.00 0.08 0.08 72 1012.4
20260905233632 30 165 1.6 4.8 0.00 0.08 0.08 72 1012.5
20260905233126 30 129 0.0 3.2 0.00 0.08 0.08 72 1012.5
20260905232622 30 147 3.2 9.7 0.00 0.08 0.08 72 1012.5
20260905232117 30 125 3.2 4.8 0.00 0.08 0.08 73 1012.2
20260905231617 30 128 1.6 3.2 0.00 0.08 0.08 74 1012.4
20260905231114 30 119 1.6 4.8 0.00 0.08 0.08 74 1012.2
20260905230609 30 125 4.8 6.4 0.00 0.08 0.08 75 1012.1
20260905230107 30 344 3.2 8.0 0.00 0.08 0.08 76 1012.2
20260905225606 30 158 3.2 4.8 0.00 0.08 0.08 76 1012.5
20260905225101 30 129 0.0 3.2 0.00 0.08 0.08 75 1012.5
20260905224556 30 153 3.2 8.0 0.23 0.08 0.08 73 1012.5
20260905224055 31 150 4.8 8.0 0.30 0.08 0.08 72 1012.3
20260905223553 31 188 4.8 14.5 0.00 0.03 0.03 70 1012.6
20260905223049 31 95 3.2 4.8 0.00 0.03 0.03 70 1012.5
20260905222548 31 131 3.2 9.7 0.00 0.03 0.03 70 1012.5
20260905222044 31 158 3.2 6.4 0.00 0.03 0.03 70 1012.4
20260905221540 31 129 3.2 11.3 0.00 0.03 0.03 70 1012.5
20260905221036 31 195 1.6 4.8 0.00 0.03 0.03 70 1012.2
20260905220531 31 153 1.6 6.4 0.00 0.03 0.03 69 1012.1
20260905220028 31 171 4.8 8.0 0.00 0.03 0.03 68 1012.3
20260905215526 31 163 4.8 4.8 0.00 0.03 0.03 67 1012.2
20260905215023 31 189 3.2 9.7 0.00 0.03 0.03 67 1012.2
20260905214519 32 129 6.4 8.0 0.00 0.03 0.03 66 1012.1
20260905214014 32 113 3.2 8.0 0.00 0.03 0.03 66 1012.2
20260905213509 32 126 3.2 11.3 0.00 0.03 0.03 65 1012.1
20260905213004 32 177 3.2 8.0 0.00 0.03 0.03 64 1012.1
20260905212459 33 127 8.0 8.0 0.00 0.03 0.03 64 1012.1
20260905211958 33 176 3.2 9.7 0.00 0.03 0.03 62 1012.2
20260905211454 33 308 3.2 6.4 0.00 0.03 0.03 61 1012.3
20260905210950 34 284 3.2 16.1 0.00 0.03 0.03 60 1012.2
20260905210445 34 135 4.8 12.9 0.00 0.03 0.03 60 1012.3
20260905205944 34 240 0.0 8.0 0.00 0.03 0.03 60 1012.0
20260905205439 34 268 9.7 17.7 0.00 0.03 0.03 59 1012.1
20260905204938 35 148 6.4 16.1 0.00 0.03 0.03 58 1012.3
20260905204434 35 140 4.8 11.3 0.00 0.03 0.03 56 1012.2
20260905203933 35 166 6.4 9.7 0.00 0.03 0.03 55 1012.1
20260905203429 35 118 1.6 4.8 0.00 0.03 0.03 56 1012.3
20260905202924 35 229 0.0 11.3 0.00 0.03 0.03 56 1012.3
20260905202419 35 175 4.8 9.7 0.00 0.03 0.03 56 1012.3
20260905201915 34 151 3.2 8.0 0.00 0.03 0.03 57 1012.1
20260905201410 35 161 1.6 4.8 0.00 0.03 0.03 57 1012.4
20260905200910 34 148 3.2 11.3 0.00 0.03 0.03 58 1012.4
20260905200406 34 273 3.2 8.0 0.00 0.03 0.03 58 1012.6
20260905195903 34 205 0.0 3.2 0.00 0.03 0.03 59 1012.6
20260905195359 34 103 0.0 6.4 0.00 0.03 0.03 61 1012.5
20260905194854 33 304 3.2 9.7 0.00 0.03 0.03 63 1012.5
20260905194353 33 296 4.8 8.0 0.00 0.03 0.03 65 1012.4
20260905193848 32 346 0.0 3.2 0.00 0.03 0.03 67 1012.6
20260905193342 32 151 3.2 4.8 0.00 0.03 0.03 67 1012.8
20260905192838 32 223 0.0 3.2 0.00 0.03 0.03 66 1012.8
20260905192334 32 240 0.0 3.2 0.00 0.03 0.03 64 1012.8
20260905191833 32 190 3.2 6.4 0.13 0.03 0.03 64 1013.1
20260905191332 33 157 3.2 6.4 0.05 0.00 0.00 60 1013.3
20260905190831 35 131 8.0 12.9 0.00 0.00 0.00 56 1013.2
20260905190331 35 117 9.7 9.7 0.00 0.00 0.00 53 1013.3
20260905185830 36 200 4.8 11.3 0.00 0.00 0.00 52 1013.1
20260905185325 37 277 1.6 6.4 0.00 0.00 0.00 50 1013.0
20260905184824 37 123 3.2 8.0 0.00 0.00 0.00 51 1013.0
20260905184323 37 154 6.4 8.0 0.00 0.00 0.00 52 1013.5
20260905183822 36 186 4.8 9.7 0.00 0.00 0.00 54 1013.5
20260905183317 35 172 0.0 4.8 0.00 0.00 0.00 54 1013.5
20260905182812 36 143 3.2 4.8 0.00 0.00 0.00 53 1013.8
20260905182312 37 77 3.2 6.4 0.00 0.00 0.00 50 1013.7
20260905181807 37 198 1.6 6.4 0.00 0.00 0.00 49 1013.7
20260905181306 37 146 4.8 11.3 0.00 0.00 0.00 48 1013.8
20260905180800 38 188 6.4 8.0 0.00 0.00 0.00 45 1013.9
20260905180255 38 224 4.8 8.0 0.00 0.00 0.00 41 1013.9
20260905175750 38 314 4.8 8.0 0.00 0.00 0.00 43 1014.0
20260905175245 38 295 4.8 6.4 0.00 0.00 0.00 45 1014.0
20260905174740 36 348 8.0 11.3 0.00 0.00 0.00 47 1014.2
20260905174236 35 0 0.0 3.2 0.00 0.00 0.00 50 1014.2
20260905173732 35 337 3.2 4.8 0.00 0.00 0.00 49 1014.4
20260905173227 35 19 0.0 4.8 0.00 0.00 0.00 49 1014.3
20260905172727 35 165 1.6 4.8 0.00 0.00 0.00 48 1014.4
20260905172221 35 357 4.8 6.4 0.00 0.00 0.00 49 1014.5
20260905171717 35 240 3.2 8.0 0.00 0.00 0.00 48 1014.5
20260905171213 35 351 6.4 8.0 0.00 0.00 0.00 51 1014.5
20260905170710 35 273 4.8 8.0 0.00 0.00 0.00 52 1014.8
20260905170210 35 146 3.2 4.8 0.00 0.00 0.00 52 1014.8
20260905165709 35 8 6.4 6.4 0.00 0.00 0.00 51 1015.0
20260905165205 35 326 0.0 8.0 0.00 0.00 0.00 52 1015.1
20260905164659 35 310 3.2 8.0 0.00 0.00 0.00 53 1015.2
20260905164159 34 356 3.2 6.4 0.00 0.00 0.00 54 1015.1
20260905163655 34 70 1.6 11.3 0.00 0.00 0.00 53 1015.0
20260905163151 34 276 1.6 4.8 0.00 0.00 0.00 57 1015.1
20260905162647 34 77 6.4 12.9 0.00 0.00 0.00 55 1015.2
20260905162147 33 7 3.2 6.4 0.00 0.00 0.00 57 1015.1
20260905161641 33 346 3.2 8.0 0.00 0.00 0.00 57 1015.4
20260905161139 33 356 4.8 8.0 0.00 0.00 0.00 57 1015.4
20260905160639 33 307 3.2 9.7 0.00 0.00 0.00 58 1015.5
20260905160133 33 359 3.2 8.0 0.00 0.00 0.00 59 1015.3
20260905155633 33 275 1.6 6.4 0.00 0.00 0.00 59 1015.4
20260905155131 33 325 1.6 4.8 0.00 0.00 0.00 59 1015.4
20260905154626 33 352 1.6 4.8 0.00 0.00 0.00 60 1015.4
20260905154122 32 51 0.0 4.8 0.00 0.00 0.00 61 1015.5
20260905153617 32 358 0.0 8.0 0.00 0.00 0.00 62 1015.4
20260905153113 32 21 3.2 6.4 0.00 0.00 0.00 64 1015.6
20260905152607 32 320 3.2 6.4 0.00 0.00 0.00 63 1015.5
20260905152102 32 19 4.8 4.8 0.00 0.00 0.00 66 1015.6
20260905151557 31 252 0.0 3.2 0.00 0.00 0.00 67 1015.5
20260905151052 31 302 3.2 6.4 0.00 0.00 0.00 69 1015.5
20260905150548 31 41 3.2 4.8 0.00 0.00 0.00 70 1015.5
20260905150045 30 75 0.0 3.2 0.00 0.00 0.00 71 1015.5
20260905145539 30 254 3.2 6.4 0.00 0.00 0.00 72 1015.6
20260905145038 30 347 0.0 4.8 0.00 0.00 0.00 73 1015.6
20260905144533 30 259 3.2 4.8 0.00 0.00 0.00 74 1015.6
20260905144032 29 25 3.2 4.8 0.00 0.00 0.00 75 1015.7
20260905143532 29 358 3.2 3.2 0.00 0.00 0.00 77 1015.6
20260905143027 28 356 1.6 4.8 0.00 0.00 0.00 77 1015.6
20260905142525 28 18 1.6 4.8 0.00 0.00 0.00 78 1015.5
20260905142021 28 309 0.0 4.8 0.00 0.00 0.00 80 1015.6
20260905141515 28 9 3.2 4.8 0.00 0.00 0.00 80 1015.8
20260905141012 27 19 3.2 3.2 0.00 0.00 0.00 81 1015.7
20260905140507 27 27 1.6 3.2 0.00 0.00 0.00 82 1015.9
20260905140005 27 16 0.0 4.8 0.00 0.00 0.00 83 1015.8
20260905135501 27 45 0.0 4.8 0.00 0.00 0.00 83 1015.7
20260905134956 26 13 0.0 3.2 0.00 0.00 0.00 85 1015.7
20260905134455 26 326 0.0 3.2 0.00 0.00 0.00 85 1015.6
20260905133955 26 333 3.2 3.2 0.00 0.00 0.00 86 1015.9
20260905133450 26 322 0.0 3.2 0.00 0.00 0.00 87 1015.7
20260905132949 25 284 0.0 3.2 0.00 0.00 0.00 87 1015.7
20260905132445 25 320 0.0 3.2 0.00 0.00 0.00 87 1015.9
20260905131939 25 62 0.0 4.8 0.00 0.00 0.00 87 1015.7
20260905131436 25 335 1.6 3.2 0.00 0.00 0.00 88 1015.8
20260905130935 25 224 0.0 3.2 0.00 0.00 0.00 88 1015.8
20260905130430 25 303 0.0 3.2 0.00 0.00 0.00 88 1015.8
20260905125930 25 304 0.0 1.6 0.00 0.00 0.00 89 1015.9
20260905125424 25 326 0.0 3.2 0.00 0.00 0.00 89 1015.8
20260905124920 24 321 0.0 3.2 0.00 0.00 0.00 90 1015.8
20260905124417 24 321 0.0 3.2 0.00 0.00 0.00 90 1015.9
20260905123916 23 320 0.0 3.2 0.00 0.00 0.00 90 1015.8
20260905123413 23 310 0.0 3.2 0.00 0.00 0.00 90 1015.8
20260905122908 23 269 0.0 3.2 0.00 0.00 0.00 90 1015.7
20260905122407 23 291 0.0 3.2 0.00 0.00 0.00 90 1015.8
20260905121903 23 316 0.0 1.6 0.00 0.00 0.00 90 1015.7
20260905121359 23 6 0.0 1.6 0.00 0.00 0.00 90 1015.7
20260905120857 23 353 0.0 1.6 0.00 0.00 0.00 90 1015.5
20260905120352 23 341 0.0 3.2 0.00 0.00 0.00 90 1015.5
20260905115847 23 75 0.0 1.6 0.00 0.00 0.00 90 1015.5
20260905115346 23 41 0.0 3.2 0.00 0.00 0.00 90 1015.5
20260905114841 23 114 0.0 3.2 0.00 0.00 0.00 90 1015.5
20260905114340 23 129 0.0 1.6 0.00 0.00 0.00 90 1015.3
20260905113840 23 142 0.0 1.6 0.00 0.00 0.00 90 1015.4
20260905113336 23 154 0.0 1.6 0.00 0.00 0.00 90 1015.4
20260905112831 23 218 0.0 1.6 0.00 0.00 0.00 90 1015.4
20260905112326 23 347 0.0 3.2 0.00 0.00 0.00 90 1015.3
20260905111821 23 69 0.0 1.6 0.00 0.00 0.00 89 1015.4
20260905111315 23 343 0.0 1.6 0.00 0.00 0.00 89 1015.2
20260905110814 23 38 1.6 1.6 0.00 0.00 0.00 89 1015.1
20260905110308 23 165 0.0 3.2 0.00 0.00 0.00 89 1015.3
20260905105804 23 129 0.0 1.6 0.00 0.00 0.00 89 1015.0
20260905105306 23 55 0.0 1.6 0.00 0.00 0.00 89 1015.1
20260905104757 23 135 0.0 3.2 0.00 0.00 0.00 89 1015.0
20260905104254 23 217 0.0 1.6 0.00 0.00 0.00 88 1015.0
20260905103753 23 103 0.0 3.2 0.00 0.00 0.00 88 1015.1
20260905103249 23 89 0.0 3.2 0.00 0.00 0.00 88 1015.0
20260905102744 23 75 0.0 1.6 0.00 0.00 0.00 88 1015.1
20260905102242 23 134 0.0 1.6 0.00 0.00 0.00 88 1015.1
20260905101741 23 95 0.0 1.6 0.00 0.00 0.00 88 1015.0
20260905101239 23 62 0.0 1.6 0.00 0.00 0.00 88 1015.1
20260905100734 23 25 0.0 0.0 0.00 0.00 0.00 88 1015.1
20260905100230 23 38 0.0 1.6 0.00 0.00 0.00 88 1015.2
20260905095730 23 75 0.0 1.6 0.00 0.00 0.00 87 1015.1